sat.trackr.live / text

‹ back to catalog

STARLINK-37512

NORAD 69035 · 2026-101L

PAYLOAD ACTIVE UNKNOWN

§ Identity

Operator
Country
US
Launch date
2026-05-06
Launch site
AFWTR
Launch vehicle
Mass (kg)
RCS (m²)

Purposes: comms

External: N2YO · Heavens-Above · Gunter

§ Orbital elements

Epoch: 2026-09-19T01:39:13.492224Z

Period
93.91 min
Inclination
97.2851°
Eccentricity
0.0002139
Mean motion
15.33438486 rev/d
Perigee alt
464.1 km
Apogee alt
467.0 km
Semi-major
6,843.7 km
B*
3.6604e-4
RAAN
115.6355°
Arg perigee
100.4659°
Mean anomaly
259.6825°
Rev number
2,096

§ Raw data

STARLINK-375121 69035U 26101L   26262.06890616  .00011759  00000+0  36604-3 0  99912 69035  97.2851 115.6355 0002139 100.4659 259.6825 15.33438486 20962

JSON: /api/v1/satellites/69035 · /tle

For live sub-satellite position, see the globe view (requires WebGL).

§ Visibility from observer

Set your observer location to see the next 7 days of passes ≥ 10°. The values pass through the URL so the page stays shareable.

No JS? Fill the form by hand. The geolocation button needs JavaScript.